STARLINK-1621 (46127 NORAD) Tracking and Keplerian Element Data

This shows tracking and keplerian element data for the satellite.

Feedback or suggestion? Click here.




ElementValue
Catalog46127
NameSTARLINK-1621
Epoch Orbit1614
Epoch Day330.91667824
Epoch Year2020
RAAN319.8164
Inclination52.9828
Eccentricity0.0001608
Argument of Perigee67.9736
Mean Anonmoly250.2617
Mean Motion15.05551846
Decay Rate0.00037998
L11 46127U 20057L 20330.91667824 .00037998 00000-0 26150-2 0 9997
L22 46127 52.9828 319.8164 0001608 67.9736 250.2617 15.05551846 16146

Live tracking and technical data element details for STARLINK-1621 (NORAD 46127). STARLINK-1621 can be tracked NOW for your location showing map with azimuth and elevation plus other details from your city location.

Track the satellite on the map from your city or location and see movement details for azimuth, elevation, latitude, longitude, range, height, and movement on the map or in text.







IsCatalogInMostPopularTable: catalog: 46127, numindb: 14
Update: records affected: 1



GetName: 46127 STARLINK-1621

Hit Count: updated at: Fri, 27 Nov 2020 00:03:37 GMT